, CA

(GMT )
Vandenberg AFB

Weather History for KVBG - October, 2013

Change the Weather History Date:

Thursday, October 3, 2013

  Actual Average Record
Temperature  
Mean Temperature 54 °F -  
Max Temperature 64 °F 66 °F 93 °F (2014)
Min Temperature 44 °F 51 °F 43 °F (2006)
Degree Days  
Heating Degree Days 11    
Growing Degree Days 4 (Base 50)    
Moisture  
Dew Point 45 °F    
Average Humidity 83    
Maximum Humidity 100    
Minimum Humidity 33    
Precipitation  
Precipitation 0.00 in - - ()
Sea Level Pressure  
Sea Level Pressure 29.93 in    
Wind  
Wind Speed 4 mph (North)    
Max Wind Speed 31 mph    
Max Gust Speed 40 mph    
Visibility 5 miles    
Events Fog    
Averages and records for this station are not official NWS values.
T = Trace of Precipitation, MM = Missing Value Source: NWS Daily Summary

Daily Weather History Graph

Daily Weather History Graph

Search for Another Location

Airport or City:

Trip Planner

Search our weather history database for the weather conditions in past years. The results will help you decide how hot, cold, wet, or windy it might be!

Date:

Astronomy

Oct. 03, 2013 Rise Set
Actual Time 6:58 AM PDT 6:43 PM PDT
Civil Twilight 6:33 AM PDT 7:08 PM PDT
Nautical Twilight 6:04 AM PDT 7:37 PM PDT
Astronomical Twilight 5:35 AM PDT 8:06 PM PDT
Moon 5:39 AM PDT (10/3) 5:53 PM PDT (10/3)
Length of Visible Light 12h 34m
Length of Day
11h 44m
Waning Crescent, 2% of the Moon is Illuminated
Oct 3
Waning Crescent
Oct 4
New
Oct 11
First Quarter
Oct 18
Full
Oct 26
Last Quarter

Hourly Weather History & Observations

Time (PDT) Temp. Windchill Dew Point Humidity Pressure Visibility Wind Dir Wind Speed Gust Speed Precip Events Conditions
12:11 AM 48.2 °F - 46.4 °F 93% 29.98 in 2.0 mi Calm Calm - N/A   Scattered Clouds
12:16 AM 48.2 °F - 46.4 °F 93% 29.97 in 3.0 mi Calm Calm - N/A   Scattered Clouds
12:29 AM 46.4 °F - 44.6 °F 93% 29.98 in 6.0 mi Calm Calm - N/A   Mostly Cloudy
12:55 AM 46.9 °F - 44.1 °F 90% 29.95 in 7.0 mi ESE 4.6 mph - N/A   Mostly Cloudy
1:04 AM 44.6 °F 40.2 °F 42.8 °F 93% 29.97 in 6.0 mi ESE 8.1 mph - N/A   Scattered Clouds
1:37 AM 46.4 °F - 44.6 °F 93% 29.98 in 4.0 mi Calm Calm - N/A   Mostly Cloudy
1:48 AM 46.4 °F - 44.6 °F 93% 29.98 in 6.0 mi Calm Calm - N/A   Overcast
1:55 AM 46.0 °F - 44.1 °F 93% 29.96 in 7.0 mi Calm Calm - N/A   Overcast
2:49 AM 44.6 °F 43.1 °F 42.8 °F 93% 29.96 in 1.5 mi ESE 3.5 mph - N/A   Overcast
2:51 AM 44.6 °F - 42.8 °F 93% 29.96 in 0.5 mi Calm Calm - N/A Fog Fog
2:55 AM 44.1 °F - 42.1 °F 93% 29.95 in 0.2 mi Calm Calm - N/A Fog Fog
3:17 AM 44.6 °F - 42.8 °F 93% 29.96 in 0.5 mi Calm Calm - N/A Fog Fog
3:23 AM 44.6 °F - 42.8 °F 93% 29.96 in 1.0 mi Calm Calm - N/A   Mist
3:26 AM 44.6 °F - 44.6 °F 100% 29.96 in 1.5 mi Calm Calm - N/A   Overcast
3:28 AM 44.6 °F - 44.6 °F 100% 29.96 in 2.5 mi Calm Calm - N/A   Overcast
3:35 AM 46.4 °F - 44.6 °F 93% 29.96 in 8.0 mi Calm Calm - N/A   Overcast
3:55 AM 48.0 °F - 46.0 °F 93% 29.94 in 5.0 mi Calm Calm - N/A   Overcast
4:04 AM 48.2 °F - 46.4 °F 93% 29.96 in 1.8 mi Calm Calm - N/A   Overcast
4:06 AM 46.4 °F - 46.4 °F 100% 29.96 in 1.0 mi Calm Calm - N/A   Mist
4:15 AM 46.4 °F - 44.6 °F 93% 29.96 in 1.5 mi Calm Calm - N/A   Overcast
4:18 AM 46.4 °F - 44.6 °F 93% 29.96 in 2.5 mi Calm Calm - N/A   Overcast
4:29 AM 44.6 °F - 42.8 °F 93% 29.96 in 6.0 mi Calm Calm - N/A   Overcast
4:59 AM 48.2 °F - 46.4 °F 93% 29.96 in 2.0 mi Calm Calm - N/A   Overcast
5:03 AM 48.2 °F - 46.4 °F 93% 29.96 in 0.8 mi Calm Calm - N/A   Mist
5:14 AM 46.4 °F 44.3 °F 44.6 °F 93% 29.95 in 1.2 mi NNW 4.6 mph - N/A   Mostly Cloudy
5:16 AM 48.2 °F - 44.6 °F 87% 29.96 in 2.5 mi NNW 3.5 mph - N/A   Mostly Cloudy
5:21 AM 46.4 °F 44.3 °F 44.6 °F 93% 29.96 in 6.0 mi North 4.6 mph - N/A   Scattered Clouds
5:36 AM 46.4 °F 45.2 °F 44.6 °F 93% 29.96 in 6.0 mi North 3.5 mph - N/A   Mostly Cloudy
5:55 AM 46.9 °F - 45.0 °F 93% 29.94 in 6.0 mi NNE 3.5 mph - N/A   Overcast
6:43 AM 44.6 °F - 44.6 °F 100% 29.97 in 4.0 mi Calm Calm - N/A   Overcast
6:51 AM 44.6 °F - 42.8 °F 93% 29.97 in 1.5 mi Calm Calm - N/A   Mostly Cloudy
6:55 AM 44.1 °F - 42.1 °F 93% 29.94 in 2.5 mi Calm Calm - N/A   Mostly Cloudy
7:55 AM 46.9 °F - 45.0 °F 93% 29.94 in 3.0 mi SE 4.6 mph - N/A   Scattered Clouds
8:55 AM 52.0 °F - 52.0 °F 100% 29.95 in 3.0 mi Calm Calm - N/A   Scattered Clouds
9:55 AM 57.9 °F - 51.1 °F 78% 29.95 in 6.0 mi Variable 3.5 mph - N/A   Haze
10:55 AM 62.1 °F - 48.0 °F 60% 29.94 in 10.0 mi NW 15.0 mph - N/A   Mostly Cloudy
11:55 AM 64.0 °F - 48.0 °F 56% 29.93 in 10.0 mi NW 18.4 mph - N/A   Scattered Clouds
12:55 PM 64.9 °F - 46.9 °F 52% 29.91 in 9.0 mi NW 21.9 mph - N/A   Scattered Clouds
1:55 PM 63.0 °F - 48.9 °F 60% 29.89 in 9.0 mi NNW 19.6 mph - N/A   Partly Cloudy
2:55 PM 63.0 °F - 48.0 °F 58% 29.88 in 9.0 mi NW 23.0 mph 32.2 mph N/A   Partly Cloudy
3:55 PM 62.1 °F - 46.0 °F 56% 29.86 in 8.0 mi NNW 27.6 mph 38.0 mph N/A   Partly Cloudy
4:38 PM 60.8 °F - 44.6 °F 55% 29.88 in 8.0 mi NNW 31.1 mph 40.3 mph N/A   Clear
4:39 PM 60.8 °F - 44.6 °F 55% 29.88 in 8.0 mi NNW 31.1 mph 40.3 mph N/A   Clear
4:55 PM 60.1 °F - 46.0 °F 60% 29.86 in 8.0 mi NNW 28.8 mph 38.0 mph N/A   Clear
5:55 PM 57.0 °F - 46.0 °F 67% 29.86 in 10.0 mi NNW 26.5 mph 35.7 mph N/A   Clear
6:55 PM 55.0 °F - 46.9 °F 74% 29.87 in 10.0 mi NNW 17.3 mph - N/A   Clear
7:55 PM 54.0 °F - 46.9 °F 77% 29.87 in 10.0 mi NNW 15.0 mph - N/A   Mostly Cloudy
9:46 PM 48.2 °F - 42.8 °F 82% 29.88 in 10.0 mi ENE 3.5 mph - N/A   Partly Cloudy
9:55 PM 48.9 °F - 43.0 °F 80% 29.86 in 10.0 mi ENE 3.5 mph - N/A   Partly Cloudy
10:55 PM 55.9 °F - 39.9 °F 55% 29.86 in 10.0 mi North 10.4 mph - N/A   Clear
11:55 PM 60.1 °F - 30.9 °F 33% 29.86 in 10.0 mi NNE 9.2 mph - N/A   Clear